#�ϑ�����,���ϕ���,���ϕ���,�ő啗��,�ő啗����������,�ő�u�ԕ���,�ő�u�ԕ�����������
#(�N����),(m/s)   ,(16����),(m/s)   ,(16����)        ,(m/s)       ,(16����)            
2015/6/19 0:01,2.5,2,2.6,2,3.1,1
2015/6/19 0:02,2.4,2,2.4,2,4.2,1
2015/6/19 0:03,2.3,2,2.4,2,3.5,2
2015/6/19 0:04,2.4,2,2.4,2,4.8,2
2015/6/19 0:05,2.4,2,2.4,2,4.1,2
2015/6/19 0:06,2.3,2,2.4,2,3.9,3
2015/6/19 0:07,2.3,2,2.4,2,4.7,2
2015/6/19 0:08,2.5,2,2.5,2,5.1,2
2015/6/19 0:09,2.5,2,2.5,2,4.7,2
2015/6/19 0:10,2.5,2,2.5,2,4.9,2
2015/6/19 0:11,2.6,2,2.6,2,4.2,2
2015/6/19 0:12,2.6,2,2.6,2,4.2,2
2015/6/19 0:13,2.6,2,2.6,2,3.7,2
2015/6/19 0:14,2.5,2,2.6,2,4.4,2
2015/6/19 0:15,2.5,2,2.5,2,3.8,2
2015/6/19 0:16,2.6,2,2.6,2,4.4,2
2015/6/19 0:17,2.6,2,2.6,2,4.7,3
2015/6/19 0:18,2.6,2,2.6,2,4.1,3
2015/6/19 0:19,2.5,2,2.6,2,3,1
2015/6/19 0:20,2.4,2,2.5,2,4.1,2
2015/6/19 0:21,2.4,2,2.4,2,4.1,3
2015/6/19 0:22,2.4,2,2.5,2,3,2
2015/6/19 0:23,2.5,2,2.5,2,3.3,2
2015/6/19 0:24,2.4,2,2.5,2,2.7,3
2015/6/19 0:25,2.3,2,2.4,2,2.2,2
2015/6/19 0:26,2.2,2,2.3,2,4.1,2
2015/6/19 0:27,2.2,2,2.3,2,4.7,2
2015/6/19 0:28,2.2,2,2.2,2,4.2,3
2015/6/19 0:29,2.3,2,2.3,2,4.9,1
2015/6/19 0:30,2.3,2,2.3,2,4.5,3
2015/6/19 0:31,2.2,2,2.3,2,4.2,1
2015/6/19 0:32,2.2,2,2.2,2,4.1,3
2015/6/19 0:33,2.2,2,2.2,2,4.7,3
2015/6/19 0:34,2.3,2,2.3,2,4.2,3
2015/6/19 0:35,2.4,2,2.4,2,3.3,3
2015/6/19 0:36,2.3,2,2.4,2,2.6,3
2015/6/19 0:37,2.4,2,2.4,2,6.2,3
2015/6/19 0:38,2.5,2,2.5,2,5.2,3
2015/6/19 0:39,2.5,2,2.6,2,4.4,3
2015/6/19 0:40,2.4,2,2.5,2,3.2,3
2015/6/19 0:41,2.5,2,2.5,2,3.7,2
2015/6/19 0:42,2.6,2,2.6,2,3.7,2
2015/6/19 0:43,2.5,2,2.6,2,4.5,4
2015/6/19 0:44,2.5,2,2.5,2,3.8,3
2015/6/19 0:45,2.4,2,2.5,2,1.9,2
2015/6/19 0:46,2.4,2,2.4,2,2.5,1
2015/6/19 0:47,2.2,2,2.4,2,2.9,3
2015/6/19 0:48,2.1,2,2.2,2,3.2,3
2015/6/19 0:49,1.9,2,2.1,2,2.7,2
2015/6/19 0:50,2,2,2,2,3.7,3
2015/6/19 0:51,2,2,2,2,3.1,3
2015/6/19 0:52,2,2,2,2,3.2,3
2015/6/19 0:53,1.9,2,2,2,2.6,2
2015/6/19 0:54,1.9,2,1.9,2,3.1,3
2015/6/19 0:55,1.9,3,1.9,2,2.4,2
2015/6/19 0:56,2,3,2,2,2.9,3
2015/6/19 0:57,2.1,3,2.1,2,3.1,3
2015/6/19 0:58,2,3,2,2,2.4,2
2015/6/19 0:59,2,3,2,3,2.6,3
2015/6/19 1:00,2,3,2,3,3.6,3
2015/6/19 1:01,2,3,2,3,2.6,2
2015/6/19 1:02,1.9,3,2,3,2.2,1
2015/6/19 1:03,1.8,3,1.9,3,2.1,2
2015/6/19 1:04,1.7,2,1.8,3,2.2,2
2015/6/19 1:05,1.8,2,1.8,3,3.1,3
2015/6/19 1:06,1.8,2,1.8,3,3.3,2
2015/6/19 1:07,1.8,2,1.8,3,3.5,3
2015/6/19 1:08,1.9,2,1.9,3,3.3,3
2015/6/19 1:09,1.9,3,1.9,3,2.9,4
2015/6/19 1:10,1.8,3,1.9,3,3.7,3
2015/6/19 1:11,1.8,3,1.8,3,3.3,3
2015/6/19 1:12,1.8,3,1.8,3,2.1,2
2015/6/19 1:13,1.9,3,1.9,2,3,2
2015/6/19 1:14,2,3,2,3,2.7,3
2015/6/19 1:15,2,3,2,3,3,3
2015/6/19 1:16,2,3,2,3,2.9,3
2015/6/19 1:17,1.9,3,2,3,2.5,3
2015/6/19 1:18,1.9,3,1.9,3,2.5,3
2015/6/19 1:19,1.9,3,1.9,3,3,3
2015/6/19 1:20,2,3,2,3,3.7,3
2015/6/19 1:21,2,3,2,3,2.7,2
2015/6/19 1:22,2,3,2,3,2.1,2
2015/6/19 1:23,2,3,2,3,2.7,2
2015/6/19 1:24,1.9,3,2,3,2.2,2
2015/6/19 1:25,1.8,3,1.9,3,1.9,3
2015/6/19 1:26,1.8,3,1.8,3,2.5,3
2015/6/19 1:27,1.8,3,1.8,3,2.4,3
2015/6/19 1:28,1.8,3,1.8,3,2.5,3
2015/6/19 1:29,1.8,3,1.8,3,2.1,3
2015/6/19 1:30,1.6,3,1.7,3,2.1,3
2015/6/19 1:31,1.6,3,1.6,3,2.4,3
2015/6/19 1:32,1.6,3,1.6,3,1.9,3
2015/6/19 1:33,1.6,3,1.6,3,1.6,3
2015/6/19 1:34,1.6,3,1.6,3,2.2,3
2015/6/19 1:35,1.6,3,1.6,3,2.2,3
2015/6/19 1:36,1.6,3,1.6,3,2.1,3
2015/6/19 1:37,1.5,3,1.6,3,2.1,3
2015/6/19 1:38,1.5,3,1.6,3,2.6,2
2015/6/19 1:39,1.6,3,1.6,3,2.5,3
2015/6/19 1:40,1.6,3,1.6,3,2.5,2
2015/6/19 1:41,1.6,3,1.6,3,2.5,2
2015/6/19 1:42,1.6,3,1.6,3,2.5,3
2015/6/19 1:43,1.6,3,1.6,3,1.9,2
2015/6/19 1:44,1.6,3,1.6,3,1.9,3
2015/6/19 1:45,1.6,3,1.6,3,2.6,3
2015/6/19 1:46,1.6,3,1.6,3,2.1,2
2015/6/19 1:47,1.6,3,1.6,3,2,3
2015/6/19 1:48,1.6,3,1.6,3,2.1,4
2015/6/19 1:49,1.6,3,1.6,3,2.5,3
2015/6/19 1:50,1.6,3,1.6,3,2.5,3
2015/6/19 1:51,1.6,3,1.6,3,2.2,3
2015/6/19 1:52,1.6,3,1.6,2,2.2,3
2015/6/19 1:53,1.7,3,1.7,3,2.2,3
2015/6/19 1:54,1.7,3,1.7,3,2,2
2015/6/19 1:55,1.6,3,1.7,3,1.4,3
2015/6/19 1:56,1.6,3,1.6,3,1.8,3
2015/6/19 1:57,1.6,3,1.6,3,2,2
2015/6/19 1:58,1.5,3,1.6,3,1.5,3
2015/6/19 1:59,1.4,3,1.5,3,1.5,4
2015/6/19 2:00,1.3,3,1.4,3,1.4,3
2015/6/19 2:01,1.3,3,1.3,3,2.1,3
2015/6/19 2:02,1.3,3,1.3,3,2,3
2015/6/19 2:03,1.2,3,1.3,3,2.1,3
2015/6/19 2:04,1.2,3,1.2,3,1.8,3
2015/6/19 2:05,1.2,3,1.2,3,1.6,4
2015/6/19 2:06,1.3,3,1.3,3,2.2,4
2015/6/19 2:07,1.3,3,1.3,3,2.1,3
2015/6/19 2:08,1.3,3,1.3,3,2.4,4
2015/6/19 2:09,1.4,3,1.4,3,2.2,3
2015/6/19 2:10,1.4,3,1.4,3,2.1,2
2015/6/19 2:11,1.3,3,1.4,3,1.4,3
2015/6/19 2:12,1.2,3,1.3,3,1.3,4
2015/6/19 2:13,1.2,3,1.2,3,1.9,1
2015/6/19 2:14,1.2,3,1.2,3,2,2
2015/6/19 2:15,1.2,3,1.2,3,1.5,2
2015/6/19 2:16,1,2,1.2,3,1.1,3
2015/6/19 2:17,1,2,1,3,2,2
2015/6/19 2:18,1,2,1,3,1.4,3
2015/6/19 2:19,0.9,2,1,3,1.8,3
2015/6/19 2:20,0.9,2,0.9,3,1.8,3
2015/6/19 2:21,1,2,1,3,1.6,3
2015/6/19 2:22,1,2,1,3,1.5,3
2015/6/19 2:23,1,2,1,3,1.8,3
2015/6/19 2:24,1,2,1,3,1.6,3
2015/6/19 2:25,1,2,1,3,1.9,2
2015/6/19 2:26,1.2,2,1.2,2,2.2,3
2015/6/19 2:27,1.2,2,1.2,2,2.2,3
2015/6/19 2:28,1.2,3,1.2,2,1.6,4
2015/6/19 2:29,1.2,2,1.3,3,1.9,3
2015/6/19 2:30,1.2,2,1.2,3,1.6,2
2015/6/19 2:31,1.2,2,1.2,3,1.8,2
2015/6/19 2:32,1.2,2,1.2,3,1.8,4
2015/6/19 2:33,1.3,2,1.3,3,1.9,3
2015/6/19 2:34,1.2,2,1.2,3,1.4,2
2015/6/19 2:35,1.2,2,1.2,3,1.6,1
2015/6/19 2:36,1.2,2,1.2,3,1.9,2
2015/6/19 2:37,1.1,2,1.2,3,1.8,3
2015/6/19 2:38,1.1,2,1.1,3,2.4,2
2015/6/19 2:39,1.2,2,1.2,2,1.9,2
2015/6/19 2:40,1.1,2,1.2,2,1.8,2
2015/6/19 2:41,1.1,2,1.1,2,1.4,1
2015/6/19 2:42,1.1,2,1.1,2,2.1,2
2015/6/19 2:43,1.1,2,1.1,2,2.2,2
2015/6/19 2:44,1.2,2,1.2,2,2.4,2
2015/6/19 2:45,1.3,2,1.3,2,3.1,3
2015/6/19 2:46,1.3,2,1.3,2,2.6,3
2015/6/19 2:47,1.4,2,1.4,2,1.9,2
2015/6/19 2:48,1.3,2,1.4,2,2,3
2015/6/19 2:49,1.4,2,1.4,2,2.9,1
2015/6/19 2:50,1.5,2,1.5,2,2.7,1
2015/6/19 2:51,1.6,2,1.6,2,2.6,2
2015/6/19 2:52,1.6,2,1.6,2,3,1
2015/6/19 2:53,1.7,2,1.7,2,3.2,2
2015/6/19 2:54,1.7,2,1.7,2,3.6,2
2015/6/19 2:55,1.7,2,1.7,2,3,1
2015/6/19 2:56,1.7,2,1.7,2,2.7,3
2015/6/19 2:57,1.7,2,1.7,2,2.9,2
2015/6/19 2:58,1.8,2,1.8,2,2.7,3
2015/6/19 2:59,1.8,2,1.8,2,2,3
2015/6/19 3:00,1.8,2,1.8,2,2.5,2
2015/6/19 3:01,1.7,2,1.8,2,2.7,3
2015/6/19 3:02,1.6,2,1.7,2,2,2
2015/6/19 3:03,1.6,2,1.6,2,2,2
2015/6/19 3:04,1.6,2,1.6,2,2.6,2
2015/6/19 3:05,1.5,2,1.6,2,2.6,2
2015/6/19 3:06,1.5,2,1.5,2,2.5,1
2015/6/19 3:07,1.4,2,1.5,2,2.2,2
2015/6/19 3:08,1.4,2,1.4,2,1.9,4
2015/6/19 3:09,1.3,2,1.4,2,2,2
2015/6/19 3:10,1.3,2,1.3,2,1.8,2
2015/6/19 3:11,1.3,2,1.3,2,2,2
2015/6/19 3:12,1.4,2,1.4,2,2.4,3
2015/6/19 3:13,1.4,2,1.4,2,2.2,2
2015/6/19 3:14,1.3,2,1.4,2,2.1,2
2015/6/19 3:15,1.3,2,1.3,2,3,3
2015/6/19 3:16,1.3,2,1.3,2,2.4,3
2015/6/19 3:17,1.4,2,1.4,2,3.7,3
2015/6/19 3:18,1.4,2,1.4,2,1.6,2
2015/6/19 3:19,1.4,2,1.4,2,1.9,3
2015/6/19 3:20,1.5,2,1.5,2,3,2
2015/6/19 3:21,1.5,2,1.5,2,3.2,3
2015/6/19 3:22,1.6,2,1.6,2,3.2,3
2015/6/19 3:23,1.6,2,1.6,2,3.7,2
2015/6/19 3:24,1.6,2,1.6,2,2.7,3
2015/6/19 3:25,1.6,2,1.7,2,2.6,2
2015/6/19 3:26,1.6,2,1.6,2,1.9,2
2015/6/19 3:27,1.6,2,1.6,2,2.9,3
2015/6/19 3:28,1.7,2,1.7,2,3,1
2015/6/19 3:29,1.7,2,1.7,2,2.9,1
2015/6/19 3:30,1.6,2,1.7,2,1.9,16
2015/6/19 3:31,1.6,2,1.6,2,3,2
2015/6/19 3:32,1.6,2,1.6,2,3.1,3
2015/6/19 3:33,1.6,2,1.6,2,3.7,2
2015/6/19 3:34,1.6,2,1.6,2,2.4,2
2015/6/19 3:35,1.6,2,1.6,2,3.3,2
2015/6/19 3:36,1.7,2,1.7,2,2.7,2
2015/6/19 3:37,1.6,2,1.7,2,2.2,2
2015/6/19 3:38,1.6,2,1.7,2,2.1,3
2015/6/19 3:39,1.6,2,1.7,2,2.7,1
2015/6/19 3:40,1.6,2,1.6,2,2.5,1
2015/6/19 3:41,1.7,2,1.7,2,3.1,2
2015/6/19 3:42,1.7,2,1.7,2,2.9,3
2015/6/19 3:43,1.6,2,1.7,2,2.6,3
2015/6/19 3:44,1.6,2,1.6,2,2,2
2015/6/19 3:45,1.5,2,1.6,2,2.5,1
2015/6/19 3:46,1.5,2,1.6,2,2.2,2
2015/6/19 3:47,1.5,2,1.5,2,2.7,3
2015/6/19 3:48,1.5,2,1.5,2,2.4,1
2015/6/19 3:49,1.5,2,1.5,2,2.9,1
2015/6/19 3:50,1.6,2,1.6,2,2.2,3
2015/6/19 3:51,1.5,2,1.6,2,1.3,1
2015/6/19 3:52,1.4,2,1.4,2,1.8,1
2015/6/19 3:53,1.4,2,1.4,2,2.5,2
2015/6/19 3:54,1.4,2,1.5,2,2.5,2
2015/6/19 3:55,1.4,2,1.4,2,1.9,1
2015/6/19 3:56,1.4,2,1.4,2,2.6,1
2015/6/19 3:57,1.4,2,1.4,2,2.6,1
2015/6/19 3:58,1.4,2,1.4,2,2.6,1
2015/6/19 3:59,1.4,2,1.4,2,2.5,1
2015/6/19 4:00,1.4,2,1.4,2,2.5,2
2015/6/19 4:01,1.5,2,1.5,2,2.9,2
2015/6/19 4:02,1.6,2,1.6,2,2.6,3
2015/6/19 4:03,1.5,2,1.6,2,2,3
2015/6/19 4:04,1.6,2,1.6,2,2.9,3
2015/6/19 4:05,1.6,2,1.6,2,2.7,3
2015/6/19 4:06,1.5,2,1.6,2,1,4
2015/6/19 4:07,1.4,2,1.5,2,2.1,3
2015/6/19 4:08,1.3,2,1.4,2,1.8,4
2015/6/19 4:09,1.3,2,1.3,2,2.4,3
2015/6/19 4:10,1.4,2,1.4,2,3.7,3
2015/6/19 4:11,1.5,2,1.5,2,4.1,3
2015/6/19 4:12,1.6,2,1.6,2,3.2,3
2015/6/19 4:13,1.6,3,1.6,2,3.1,3
2015/6/19 4:14,1.6,2,1.7,3,3,3
2015/6/19 4:15,1.7,2,1.7,3,2.9,3
2015/6/19 4:16,1.8,3,1.8,3,2.5,3
2015/6/19 4:17,1.9,3,1.9,3,2.2,3
2015/6/19 4:18,2,3,2,3,2.2,3
2015/6/19 4:19,2,3,2,3,1.9,3
2015/6/19 4:20,1.9,3,2,3,1.8,3
2015/6/19 4:21,1.8,3,1.9,3,1.5,3
2015/6/19 4:22,1.6,3,1.8,3,1.3,3
2015/6/19 4:23,1.5,3,1.6,3,1.3,16
2015/6/19 4:24,1.4,2,1.5,3,1,16
2015/6/19 4:25,1.2,2,1.4,3,1.4,4
2015/6/19 4:26,1.1,2,1.2,3,1.8,3
2015/6/19 4:27,1,2,1.1,3,1.8,4
2015/6/19 4:28,0.9,2,1,3,1.3,3
2015/6/19 4:29,0.8,2,0.9,3,0.9,2
2015/6/19 4:30,0.7,2,0.8,3,1.8,3
2015/6/19 4:31,0.7,2,0.7,3,1.6,3
2015/6/19 4:32,0.7,2,0.7,3,2.6,3
2015/6/19 4:33,0.8,2,0.8,2,2.1,4
2015/6/19 4:34,0.9,2,0.9,2,2.9,3
2015/6/19 4:35,1,2,1,2,2.1,3
2015/6/19 4:36,1.1,2,1.1,2,2.4,3
2015/6/19 4:37,1.1,2,1.1,2,1.5,2
2015/6/19 4:38,1.1,2,1.1,2,1.5,2
2015/6/19 4:39,1.2,2,1.2,2,1.5,2
2015/6/19 4:40,1.2,2,1.2,2,1.3,2
2015/6/19 4:41,1.2,2,1.2,2,1.9,3
2015/6/19 4:42,1.3,2,1.3,2,2.2,3
2015/6/19 4:43,1.3,2,1.3,2,2.1,2
2015/6/19 4:44,1.2,2,1.3,2,2,1
2015/6/19 4:45,1.2,2,1.2,2,2.4,3
2015/6/19 4:46,1.2,2,1.2,2,2.7,1
2015/6/19 4:47,1.3,2,1.3,2,2.2,2
2015/6/19 4:48,1.3,2,1.3,2,1.8,4
2015/6/19 4:49,1.3,2,1.4,2,2.7,3
2015/6/19 4:50,1.4,2,1.4,2,2.1,2
2015/6/19 4:51,1.4,2,1.5,2,2.4,3
2015/6/19 4:52,1.3,2,1.4,2,0.9,2
2015/6/19 4:53,1.3,2,1.3,2,2.1,2
2015/6/19 4:54,1.3,2,1.3,2,2.6,3
2015/6/19 4:55,1.4,2,1.5,2,3.2,2
2015/6/19 4:56,1.4,2,1.4,2,3.1,3
2015/6/19 4:57,1.4,2,1.4,2,2.7,3
2015/6/19 4:58,1.6,2,1.6,2,3.7,2
2015/6/19 4:59,1.6,2,1.6,2,3,2
2015/6/19 5:00,1.6,2,1.6,2,2.6,2
2015/6/19 5:01,1.7,2,1.7,2,3.6,2
2015/6/19 5:02,1.8,2,1.8,2,3.1,3
2015/6/19 5:03,1.9,2,1.9,2,3.1,2
2015/6/19 5:04,1.9,2,2,2,2.5,1
2015/6/19 5:05,1.8,2,1.9,2,2,2
2015/6/19 5:06,1.8,2,1.9,2,2.6,3
2015/6/19 5:07,1.8,2,1.8,2,2.6,3
2015/6/19 5:08,1.6,2,1.8,2,2,3
2015/6/19 5:09,1.6,2,1.6,2,2.6,3
2015/6/19 5:10,1.6,2,1.6,2,2.4,3
2015/6/19 5:11,1.6,2,1.7,2,3.1,3
2015/6/19 5:12,1.7,2,1.7,2,3.3,4
2015/6/19 5:13,1.6,2,1.7,2,3.2,3
2015/6/19 5:14,1.8,2,1.8,2,3.5,3
2015/6/19 5:15,1.8,2,1.8,2,3.5,3
2015/6/19 5:16,1.9,2,1.9,2,3.2,2
2015/6/19 5:17,2,2,2,2,3.1,3
2015/6/19 5:18,2.1,2,2.1,2,3,3
2015/6/19 5:19,2.2,3,2.2,3,2.7,3
2015/6/19 5:20,2.2,3,2.2,3,3.2,2
2015/6/19 5:21,2.2,3,2.2,3,3.3,3
2015/6/19 5:22,2.1,3,2.2,3,3.2,3
2015/6/19 5:23,2.1,2,2.1,3,2.6,3
2015/6/19 5:24,2,2,2.1,3,3,2
2015/6/19 5:25,2,2,2,3,2.7,3
2015/6/19 5:26,2,3,2,3,3,3
2015/6/19 5:27,1.9,3,2,3,3.1,3
2015/6/19 5:28,1.8,2,1.9,3,1.8,3
2015/6/19 5:29,1.7,2,1.8,3,1.5,3
2015/6/19 5:30,1.6,2,1.7,3,1.5,3
2015/6/19 5:31,1.6,2,1.6,3,2,3
2015/6/19 5:32,1.5,2,1.6,2,1.5,4
2015/6/19 5:33,1.5,2,1.5,2,2.2,3
2015/6/19 5:34,1.4,2,1.5,2,1.6,16
2015/6/19 5:35,1.3,2,1.4,2,2,2
2015/6/19 5:36,1.2,2,1.3,3,1.6,2
2015/6/19 5:37,1.1,2,1.2,3,1.4,3
2015/6/19 5:38,1.1,2,1.1,3,2.4,1
2015/6/19 5:39,1.2,2,1.2,2,2.5,2
2015/6/19 5:40,1.2,2,1.2,2,2.2,2
2015/6/19 5:41,1.2,2,1.2,2,1.8,1
2015/6/19 5:42,1.2,2,1.2,2,2,1
2015/6/19 5:43,1.1,2,1.2,2,2.1,2
2015/6/19 5:44,1.2,2,1.2,2,2.7,3
2015/6/19 5:45,1.2,2,1.2,2,2.4,3
2015/6/19 5:46,1.2,2,1.2,2,1.8,3
2015/6/19 5:47,1.3,2,1.3,2,1.6,3
2015/6/19 5:48,1.3,2,1.3,2,2.4,3
2015/6/19 5:49,1.4,2,1.4,2,2,3
2015/6/19 5:50,1.3,2,1.4,2,2,1
2015/6/19 5:51,1.3,2,1.3,2,2,2
2015/6/19 5:52,1.3,2,1.4,2,1.8,2
2015/6/19 5:53,1.3,2,1.3,2,1.8,3
2015/6/19 5:54,1.2,2,1.3,2,1.6,3
2015/6/19 5:55,1.3,2,1.3,2,2.1,3
2015/6/19 5:56,1.2,2,1.3,2,1.3,2
2015/6/19 5:57,1.2,2,1.2,2,2.2,3
2015/6/19 5:58,1.2,2,1.2,2,1.9,2
2015/6/19 5:59,1.1,2,1.2,2,1.8,2
2015/6/19 6:00,1.1,2,1.1,2,2,3
2015/6/19 6:01,1,2,1.1,2,1.4,3
2015/6/19 6:02,1.1,2,1.1,2,2.1,1
2015/6/19 6:03,1.1,2,1.1,2,2.2,3
2015/6/19 6:04,1.1,2,1.1,2,1.6,1
2015/6/19 6:05,1.1,2,1.1,2,1.8,2
2015/6/19 6:06,1.1,2,1.1,2,1.9,2
2015/6/19 6:07,1.1,2,1.2,2,1.8,2
2015/6/19 6:08,1,2,1.1,2,0.9,1
2015/6/19 6:09,1,2,1,2,1.9,3
2015/6/19 6:10,1,2,1,2,1.8,2
2015/6/19 6:11,1,2,1,2,1.8,2
2015/6/19 6:12,1,2,1,2,1.8,1
2015/6/19 6:13,0.9,2,1,2,1.3,1
2015/6/19 6:14,0.9,2,0.9,2,1.8,1
2015/6/19 6:15,0.9,2,0.9,2,1.8,2
2015/6/19 6:16,0.9,2,0.9,2,1.9,16
2015/6/19 6:17,0.9,2,0.9,2,2.1,2
2015/6/19 6:18,1,2,1,2,2.4,2
2015/6/19 6:19,1,2,1,2,1.4,2
2015/6/19 6:20,0.9,2,1,2,1.3,2
2015/6/19 6:21,1,2,1,2,2.1,1
2015/6/19 6:22,1,1,1,2,1.3,3
2015/6/19 6:23,1,2,1,2,1.3,3
2015/6/19 6:24,1,1,1,2,1,1
2015/6/19 6:25,0.9,1,0.9,2,1,16
2015/6/19 6:26,0.9,1,0.9,2,1.4,1
2015/6/19 6:27,0.9,1,0.9,2,1.4,1
2015/6/19 6:28,0.8,1,0.9,2,0.8,1
2015/6/19 6:29,0.8,1,0.8,2,0.8,15
2015/6/19 6:30,0.7,1,0.8,2,0.1,4
2015/6/19 6:31,0.5,1,0.7,2,0.1,4
2015/6/19 6:32,0.4,2,0.5,1,0.1,4
2015/6/19 6:33,0.3,2,0.4,2,0.1,4
2015/6/19 6:34,0.3,3,0.3,1,0.1,4
2015/6/19 6:35,0.3,3,0.3,1,0.1,4
2015/6/19 6:36,0.2,4,0.3,1,0.3,4
2015/6/19 6:37,0.1,4,0.2,1,0.1,4
2015/6/19 6:38,0,4,0.1,1,0.1,4
2015/6/19 6:39,0,4,0,1,0.1,4
2015/6/19 6:40,0,4,0,1,0.1,4
2015/6/19 6:41,0,4,0,1,0.1,4
2015/6/19 6:42,0,4,0,2,0.1,4
2015/6/19 6:43,0,4,0,2,0.1,4
2015/6/19 6:44,0,4,0,3,0.1,4
2015/6/19 6:45,0,4,0,3,0.1,4
2015/6/19 6:46,0,4,0,4,0.1,4
2015/6/19 6:47,0,4,0,4,0.1,4
2015/6/19 6:48,0,4,0,4,0.1,4
2015/6/19 6:49,0,4,0,4,0.1,4
2015/6/19 6:50,0,4,0,4,0.1,4
2015/6/19 6:51,0,4,0,4,0.1,4
2015/6/19 6:52,0,4,0,4,0.1,4
2015/6/19 6:53,0,4,0,4,0.1,4
2015/6/19 6:54,0,4,0,4,0.1,4
2015/6/19 6:55,0,4,0,4,0.1,4
2015/6/19 6:56,0,4,0,4,0.1,4
2015/6/19 6:57,0,4,0,4,0.1,4
2015/6/19 6:58,0,4,0,4,0.1,4
2015/6/19 6:59,0,4,0,4,0.1,4
2015/6/19 7:00,0,4,0,4,0.1,4
2015/6/19 7:01,0,4,0,4,0.1,4
2015/6/19 7:02,0,4,0,4,0.1,4
2015/6/19 7:03,0,4,0,4,0.1,4
2015/6/19 7:04,0,4,0,4,0.1,4
2015/6/19 7:05,0,4,0,4,0.1,4
2015/6/19 7:06,0,4,0,4,0.1,4
2015/6/19 7:07,0,4,0,4,0.1,4
2015/6/19 7:08,0,4,0,4,0.1,4
2015/6/19 7:09,0,4,0,4,0.1,4
2015/6/19 7:10,0,4,0,4,0.1,4
2015/6/19 7:11,0,4,0,4,0.1,4
2015/6/19 7:12,0,4,0,4,0.1,4
2015/6/19 7:13,0,4,0,4,0.1,4
2015/6/19 7:14,0,4,0,4,0.1,4
2015/6/19 7:15,0,4,0,4,0.1,4
2015/6/19 7:16,0,4,0,4,0.1,4
2015/6/19 7:17,0,4,0,4,0.3,4
2015/6/19 7:18,0,4,0,4,0.1,4
2015/6/19 7:19,0,4,0,4,0.1,4
2015/6/19 7:20,0,4,0,4,0.5,4
2015/6/19 7:21,0.1,4,0.1,4,1.3,1
2015/6/19 7:22,0.2,4,0.2,4,1.5,16
2015/6/19 7:23,0.2,4,0.2,4,1.5,2
2015/6/19 7:24,0.3,3,0.3,4,1.8,1
2015/6/19 7:25,0.4,3,0.4,3,2.1,2
2015/6/19 7:26,0.5,3,0.5,3,1.5,3
2015/6/19 7:27,0.5,3,0.5,3,1.4,1
2015/6/19 7:28,0.6,2,0.6,3,1.8,1
2015/6/19 7:29,0.7,2,0.7,2,1.4,1
2015/6/19 7:30,0.8,2,0.8,2,1.1,2
2015/6/19 7:31,0.9,2,0.9,2,1.5,1
2015/6/19 7:32,0.9,2,0.9,2,1.9,2
2015/6/19 7:33,0.9,2,0.9,2,1.3,2
2015/6/19 7:34,0.9,2,0.9,2,1.4,1
2015/6/19 7:35,0.8,2,0.9,2,0.8,3
2015/6/19 7:36,0.8,2,0.8,2,0.5,1
2015/6/19 7:37,0.8,2,0.8,2,1.4,3
2015/6/19 7:38,0.8,2,0.8,2,1.4,3
2015/6/19 7:39,0.8,2,0.8,2,1.4,3
2015/6/19 7:40,0.7,2,0.8,2,0.5,3
2015/6/19 7:41,0.7,2,0.7,2,0.6,5
2015/6/19 7:42,0.5,3,0.6,2,0.1,5
2015/6/19 7:43,0.5,3,0.5,2,1.6,5
2015/6/19 7:44,0.6,3,0.6,2,1.4,4
2015/6/19 7:45,0.6,3,0.6,2,1.3,4
2015/6/19 7:46,0.6,4,0.6,2,1.1,3
2015/6/19 7:47,0.6,4,0.6,2,1.3,4
2015/6/19 7:48,0.7,4,0.7,2,2,3
2015/6/19 7:49,0.8,4,0.8,2,2.6,3
2015/6/19 7:50,0.9,4,0.9,4,2.4,3
2015/6/19 7:51,1,4,1,4,2.1,3
2015/6/19 7:52,1.2,4,1.2,4,2.1,3
2015/6/19 7:53,1.3,3,1.3,4,2,4
2015/6/19 7:54,1.3,4,1.3,4,1.8,3
2015/6/19 7:55,1.4,3,1.4,3,2.1,3
2015/6/19 7:56,1.4,3,1.4,3,1.6,2
2015/6/19 7:57,1.4,3,1.4,3,1.5,6
2015/6/19 7:58,1.3,4,1.4,3,1.9,6
2015/6/19 7:59,1.2,4,1.3,3,1.6,5
2015/6/19 8:00,1.2,4,1.2,3,1.5,5
2015/6/19 8:01,1.1,4,1.2,3,1.3,3
2015/6/19 8:02,1,4,1.1,3,1.5,4
2015/6/19 8:03,1,5,1,3,1.4,4
2015/6/19 8:04,1,5,1,3,1.9,6
2015/6/19 8:05,1,5,1,3,2.4,6
2015/6/19 8:06,1.1,5,1.1,3,2.1,4
2015/6/19 8:07,1.1,5,1.1,4,1.6,4
2015/6/19 8:08,1.2,5,1.2,4,1.4,5
2015/6/19 8:09,1.1,5,1.1,4,0.8,7
2015/6/19 8:10,1,5,1.1,4,1,7
2015/6/19 8:11,1,6,1,5,1.5,7
2015/6/19 8:12,0.9,6,1,5,0.3,5
2015/6/19 8:13,0.8,6,0.9,5,0.6,6
2015/6/19 8:14,0.8,5,0.8,5,0.8,4
2015/6/19 8:15,0.7,5,0.8,5,1,6
2015/6/19 8:16,0.5,6,0.6,5,0.1,7
2015/6/19 8:17,0.4,6,0.5,5,0.1,7
2015/6/19 8:18,0.3,6,0.4,5,0.1,7
2015/6/19 8:19,0.3,6,0.3,5,0.5,7
2015/6/19 8:20,0.3,6,0.3,5,1.1,6
2015/6/19 8:21,0.3,6,0.3,6,1.1,8
2015/6/19 8:22,0.3,6,0.3,6,0.6,8
2015/6/19 8:23,0.3,7,0.3,6,0.4,8
2015/6/19 8:24,0.3,7,0.3,5,1.4,6
2015/6/19 8:25,0.3,7,0.3,5,1.3,5
2015/6/19 8:26,0.4,7,0.4,6,1.5,5
2015/6/19 8:27,0.5,6,0.5,6,1,4
2015/6/19 8:28,0.5,6,0.5,6,1.3,5
2015/6/19 8:29,0.7,6,0.7,6,1.5,6
2015/6/19 8:30,0.7,6,0.7,6,1.5,6
2015/6/19 8:31,0.7,6,0.7,6,1,9
2015/6/19 8:32,0.7,6,0.7,6,1.6,4
2015/6/19 8:33,0.9,6,0.9,6,1.6,5
2015/6/19 8:34,0.9,6,0.9,6,2.1,5
2015/6/19 8:35,0.9,6,0.9,6,1.1,4
2015/6/19 8:36,0.9,6,0.9,6,0.9,5
2015/6/19 8:37,0.8,6,0.9,6,0.6,4
2015/6/19 8:38,0.8,6,0.8,6,0.1,9
2015/6/19 8:39,0.7,6,0.7,6,1.3,5
2015/6/19 8:40,0.7,6,0.7,6,0.9,5
2015/6/19 8:41,0.7,5,0.7,6,1.4,3
2015/6/19 8:42,0.7,5,0.7,6,1.3,2
2015/6/19 8:43,0.7,5,0.7,6,1.6,5
2015/6/19 8:44,0.6,4,0.7,6,1,4
2015/6/19 8:45,0.6,4,0.6,6,0.9,4
2015/6/19 8:46,0.6,4,0.6,5,0.9,7
2015/6/19 8:47,0.6,4,0.6,6,1.3,5
2015/6/19 8:48,0.7,4,0.7,6,2.1,6
2015/6/19 8:49,0.8,4,0.8,4,2.2,5
2015/6/19 8:50,0.9,4,0.9,4,1.5,6
2015/6/19 8:51,0.9,5,0.9,4,1.3,6
2015/6/19 8:52,0.9,5,0.9,4,1.4,4
2015/6/19 8:53,0.9,5,0.9,4,1.3,4
2015/6/19 8:54,0.9,5,0.9,4,1,6
2015/6/19 8:55,0.9,5,0.9,4,1.3,6
2015/6/19 8:56,0.9,5,0.9,4,0.8,5
2015/6/19 8:57,0.9,5,0.9,4,1.1,5
2015/6/19 8:58,0.8,5,0.9,4,1.3,7
2015/6/19 8:59,0.7,5,0.8,4,0.8,6
2015/6/19 9:00,0.7,5,0.7,4,1.6,6
2015/6/19 9:01,0.7,5,0.7,5,1.3,5
2015/6/19 9:02,0.7,5,0.7,5,1,5
2015/6/19 9:03,0.7,5,0.7,5,0.9,5
2015/6/19 9:04,0.7,5,0.7,5,1.5,6
2015/6/19 9:05,0.7,5,0.7,5,1.9,6
2015/6/19 9:06,0.8,5,0.8,5,1.9,6
2015/6/19 9:07,0.9,5,0.9,5,2,5
2015/6/19 9:08,0.9,5,0.9,5,1.4,5
2015/6/19 9:09,0.9,5,0.9,5,1.3,4
2015/6/19 9:10,0.9,5,0.9,5,1,5
2015/6/19 9:11,0.9,5,0.9,5,1.1,3
2015/6/19 9:12,0.8,5,0.9,5,1,3
2015/6/19 9:13,0.8,5,0.8,5,0.5,3
2015/6/19 9:14,0.8,4,0.8,5,1.6,5
2015/6/19 9:15,0.9,4,0.9,5,1.8,3
2015/6/19 9:16,0.9,4,0.9,5,1.9,4
2015/6/19 9:17,0.9,4,0.9,5,3.1,4
2015/6/19 9:18,0.9,4,0.9,5,1.9,4
2015/6/19 9:19,1.1,4,1.1,4,3.2,3
2015/6/19 9:20,1.3,4,1.3,4,3.3,4
2015/6/19 9:21,1.4,4,1.4,4,3.1,3
2015/6/19 9:22,1.6,4,1.6,4,3.5,3
2015/6/19 9:23,1.9,4,1.9,4,3.2,2
2015/6/19 9:24,1.9,4,1.9,4,2.4,4
2015/6/19 9:25,2,4,2,4,2.5,3
2015/6/19 9:26,2.1,4,2.1,4,3.3,3
2015/6/19 9:27,2.1,3,2.1,4,3.2,3
2015/6/19 9:28,2.2,3,2.2,3,3.3,3
2015/6/19 9:29,2.3,3,2.3,3,3.6,3
2015/6/19 9:30,2.2,3,2.3,3,2.5,2
2015/6/19 9:31,2.1,3,2.2,3,2.1,4
2015/6/19 9:32,2,3,2.1,3,2,3
2015/6/19 9:33,2,3,2,3,2.9,3
2015/6/19 9:34,2,3,2,3,2.9,3
2015/6/19 9:35,1.9,3,2,3,1.3,3
2015/6/19 9:36,1.7,3,1.8,3,1,15
2015/6/19 9:37,1.6,3,1.7,3,2.6,3
2015/6/19 9:38,1.5,3,1.6,3,2.5,4
2015/6/19 9:39,1.4,3,1.5,3,2.9,4
2015/6/19 9:40,1.4,3,1.4,3,2.6,4
2015/6/19 9:41,1.4,3,1.4,3,1.9,4
2015/6/19 9:42,1.4,3,1.4,3,2.2,3
2015/6/19 9:43,1.3,3,1.4,3,2.1,5
2015/6/19 9:44,1.3,4,1.3,3,2.1,4
2015/6/19 9:45,1.4,4,1.4,3,2.1,4
2015/6/19 9:46,1.4,4,1.4,3,1.8,4
2015/6/19 9:47,1.4,4,1.4,3,2,2
2015/6/19 9:48,1.3,4,1.4,3,1.9,2
2015/6/19 9:49,1.3,4,1.4,3,2.5,2
2015/6/19 9:50,1.2,3,1.3,3,1.5,2
2015/6/19 9:51,1.3,3,1.3,3,2.5,2
2015/6/19 9:52,1.2,3,1.2,3,2.2,2
2015/6/19 9:53,1.2,3,1.2,4,2.1,3
2015/6/19 9:54,1.1,3,1.2,4,1.5,3
2015/6/19 9:55,1,2,1.1,4,1,3
2015/6/19 9:56,1,2,1,4,0.9,2
2015/6/19 9:57,1,3,1,4,2.6,4
2015/6/19 9:58,1.1,3,1.1,4,2.5,3
2015/6/19 9:59,1,3,1.1,3,2.2,3
2015/6/19 10:00,1.1,3,1.1,3,2.6,3
2015/6/19 10:01,1.1,3,1.1,3,2.4,5
2015/6/19 10:02,1.1,4,1.1,3,2.2,5
2015/6/19 10:03,1.2,4,1.2,3,2.2,5
2015/6/19 10:04,1.3,4,1.3,4,2.1,5
2015/6/19 10:05,1.3,4,1.3,4,1.3,4
2015/6/19 10:06,1.3,4,1.3,4,1.9,3
2015/6/19 10:07,1.2,4,1.3,4,1.3,5
2015/6/19 10:08,1.2,4,1.2,4,1.4,3
2015/6/19 10:09,1.2,4,1.2,4,1.5,4
2015/6/19 10:10,1.1,4,1.2,4,1.5,2
2015/6/19 10:11,1.1,4,1.1,4,2.1,5
2015/6/19 10:12,1.1,4,1.1,4,2.5,5
2015/6/19 10:13,1.1,4,1.1,4,2,4
2015/6/19 10:14,1.1,4,1.1,4,2.2,6
2015/6/19 10:15,1.1,4,1.1,4,1.6,7
2015/6/19 10:16,1,5,1.1,4,1.3,6
2015/6/19 10:17,1.1,5,1.1,4,1.6,5
2015/6/19 10:18,1.1,5,1.1,4,1.9,4
2015/6/19 10:19,1.1,5,1.1,4,1,4
2015/6/19 10:20,1,5,1.1,4,0.4,3
2015/6/19 10:21,0.9,5,1,4,0.1,3
2015/6/19 10:22,0.7,5,0.9,4,1,9
2015/6/19 10:23,0.6,5,0.7,4,0.8,14
2015/6/19 10:24,0.5,5,0.6,4,0.4,3
2015/6/19 10:25,0.5,5,0.5,5,1,9
2015/6/19 10:26,0.4,5,0.5,5,0.6,7
2015/6/19 10:27,0.4,6,0.4,5,0.8,10
2015/6/19 10:28,0.3,7,0.4,5,0.5,11
2015/6/19 10:29,0.2,8,0.3,5,0.6,4
2015/6/19 10:30,0.3,8,0.3,5,0.8,7
2015/6/19 10:31,0.3,8,0.3,5,0.8,4
2015/6/19 10:32,0.2,8,0.3,5,0.1,8
2015/6/19 10:33,0.2,7,0.2,5,0.8,8
2015/6/19 10:34,0.3,7,0.3,5,0.6,1
2015/6/19 10:35,0.2,6,0.3,5,0.4,2
2015/6/19 10:36,0.2,5,0.2,5,0.1,4
2015/6/19 10:37,0.1,5,0.2,6,0.4,5
2015/6/19 10:38,0.2,5,0.2,7,1,6
2015/6/19 10:39,0.2,5,0.2,8,0.9,8
2015/6/19 10:40,0.3,5,0.3,8,1,6
2015/6/19 10:41,0.2,6,0.3,8,0.8,6
2015/6/19 10:42,0.3,5,0.3,7,0.9,5
2015/6/19 10:43,0.4,5,0.4,5,1,5
2015/6/19 10:44,0.3,5,0.4,5,0.5,4
2015/6/19 10:45,0.3,5,0.3,5,0.1,3
2015/6/19 10:46,0.3,5,0.3,5,0.1,11
2015/6/19 10:47,0.3,5,0.3,5,0.1,14
2015/6/19 10:48,0.3,4,0.3,5,1.4,2
2015/6/19 10:49,0.4,4,0.4,5,1.4,5
2015/6/19 10:50,0.4,3,0.4,5,1.6,3
2015/6/19 10:51,0.5,3,0.5,3,1.6,4
2015/6/19 10:52,0.6,3,0.6,3,1.8,4
2015/6/19 10:53,0.6,3,0.6,3,1.3,4
2015/6/19 10:54,0.6,3,0.6,3,1.5,6
2015/6/19 10:55,0.8,3,0.8,3,1.6,5
2015/6/19 10:56,0.8,4,0.8,3,1.6,4
2015/6/19 10:57,1,4,1,4,2,4
2015/6/19 10:58,1,4,1,4,1.4,16
2015/6/19 10:59,1,4,1,4,2.2,2
2015/6/19 11:00,1,4,1,4,1.4,6
2015/6/19 11:01,0.9,4,1,4,1,4
2015/6/19 11:02,0.8,4,0.9,4,0.5,2
2015/6/19 11:03,0.8,4,0.8,4,1,2
2015/6/19 11:04,0.9,4,0.9,4,2.9,3
2015/6/19 11:05,0.9,4,0.9,4,2.7,3
2015/6/19 11:06,1.1,4,1.1,4,2.7,3
2015/6/19 11:07,1.1,3,1.1,4,2.2,3
2015/6/19 11:08,1.2,3,1.2,3,2,3
2015/6/19 11:09,1.1,3,1.2,3,1.1,3
2015/6/19 11:10,1.1,3,1.1,3,1.4,2
2015/6/19 11:11,1.2,3,1.2,3,1.5,4
2015/6/19 11:12,1.3,3,1.3,3,1.4,5
2015/6/19 11:13,1.3,3,1.3,3,1.3,3
2015/6/19 11:14,1.2,3,1.3,3,1.1,7
2015/6/19 11:15,1.1,3,1.2,3,2.4,4
2015/6/19 11:16,1,3,1.1,3,1.6,4
2015/6/19 11:17,0.9,4,1,3,1,4
2015/6/19 11:18,0.8,3,0.9,3,0.8,1
2015/6/19 11:19,0.8,3,0.8,3,1.4,3
2015/6/19 11:20,0.8,3,0.8,3,2.1,4
2015/6/19 11:21,0.9,3,0.9,3,2.4,4
2015/6/19 11:22,0.8,3,0.9,3,0.9,3
2015/6/19 11:23,0.8,3,0.9,3,1.8,2
2015/6/19 11:24,0.9,3,0.9,3,1.8,6
2015/6/19 11:25,0.8,3,0.9,3,1.3,5
2015/6/19 11:26,0.7,3,0.8,4,1.3,3
2015/6/19 11:27,0.7,3,0.7,4,1.3,3
2015/6/19 11:28,0.8,3,0.8,4,1.5,5
2015/6/19 11:29,0.8,4,0.8,4,1.3,6
2015/6/19 11:30,0.8,4,0.8,4,1.5,6
2015/6/19 11:31,0.7,4,0.8,3,1.8,5
2015/6/19 11:32,0.8,4,0.8,3,1.8,6
2015/6/19 11:33,0.7,5,0.8,3,0.8,5
2015/6/19 11:34,0.7,4,0.7,3,1.9,3
2015/6/19 11:35,0.7,4,0.7,3,1.1,3
2015/6/19 11:36,0.7,4,0.7,3,1.3,2
2015/6/19 11:37,0.7,5,0.7,3,1.5,6
2015/6/19 11:38,0.7,5,0.7,3,1.8,6
2015/6/19 11:39,0.8,5,0.8,4,2.9,6
2015/6/19 11:40,0.9,5,0.9,5,3,5
2015/6/19 11:41,1,5,1,5,2.4,5
2015/6/19 11:42,1,5,1,5,1.6,9
2015/6/19 11:43,1,5,1,5,0.9,11
2015/6/19 11:44,0.9,6,1,5,0.8,11
2015/6/19 11:45,1,6,1,5,2,7
2015/6/19 11:46,1.2,6,1.2,6,2.7,6
2015/6/19 11:47,1.3,6,1.3,6,2.6,5
2015/6/19 11:48,1.3,6,1.3,6,2.2,5
2015/6/19 11:49,1.3,6,1.3,6,1.5,5
2015/6/19 11:50,1.2,6,1.3,6,1.4,3
2015/6/19 11:51,1,6,1.2,6,0.8,6
2015/6/19 11:52,1,6,1,6,1,9
2015/6/19 11:53,1,6,1,6,1,8
2015/6/19 11:54,1.1,6,1.1,6,2.5,9
2015/6/19 11:55,1.1,6,1.1,6,1.8,10